LAN146 SABE-SACO

Flight info

Callsign LAN146
Flight time 1h 26m
Altitude 36000
Route ATOV4B ATOVO UW5 ASISA ASIS1Q
Aircraft A320/M-VGDW/C

Departure

Time 2026-05-03 22:32
Airport Aeroparque Jorge Newbery (SABE)

Arrival

Time 2026-05-03 23:58
Airport Ingeniero Aeronáutico Ambrosio L.V. Taravella International Airport (SACO)
Time Latitude Longitude Altitude Speed Heading
2026-05-03 21:29 -34.55678 -58.41484 28 ft 0 kts 13°
2026-05-03 22:17 -34.55683 -58.41485 28 ft 2 kts 13°
2026-05-03 22:17 -34.55698 -58.41490 28 ft 2 kts 27°
2026-05-03 22:17 -34.55709 -58.41501 28 ft 2 kts 49°
2026-05-03 22:17 -34.55717 -58.41517 28 ft 2 kts 71°
2026-05-03 22:18 -34.55719 -58.41527 28 ft 1 kts 84°
2026-05-03 22:18 -34.55719 -58.41518 28 ft 3 kts 87°
2026-05-03 22:18 -34.55724 -58.41499 28 ft 1 kts 118°
2026-05-03 22:18 -34.55724 -58.41498 28 ft 0 kts 118°
2026-05-03 22:23 -34.55725 -58.41497 28 ft 1 kts 118°
2026-05-03 22:23 -34.55730 -58.41486 28 ft 2 kts 118°
2026-05-03 22:24 -34.55745 -58.41456 28 ft 6 kts 122°
2026-05-03 22:24 -34.55772 -58.41402 28 ft 8 kts 119°
2026-05-03 22:24 -34.55804 -58.41338 28 ft 9 kts 124°
2026-05-03 22:24 -34.55845 -58.41280 29 ft 7 kts 157°
2026-05-03 22:25 -34.55875 -58.41287 29 ft 1 kts 204°
2026-05-03 22:25 -34.55880 -58.41289 29 ft 2 kts 203°
2026-05-03 22:25 -34.55911 -58.41300 30 ft 6 kts 175°
2026-05-03 22:25 -34.55953 -58.41248 31 ft 9 kts 127°
2026-05-03 22:26 -34.55996 -58.41178 31 ft 11 kts 127°
2026-05-03 22:26 -34.56054 -58.41087 31 ft 14 kts 127°
2026-05-03 22:26 -34.56118 -58.40984 30 ft 15 kts 128°
2026-05-03 22:26 -34.56169 -58.40888 29 ft 5 kts 115°
2026-05-03 22:27 -34.56172 -58.40878 29 ft 2 kts 101°
2026-05-03 22:27 -34.56173 -58.40841 29 ft 6 kts 91°
2026-05-03 22:27 -34.56196 -58.40777 28 ft 10 kts 124°
2026-05-03 22:27 -34.56241 -58.40698 27 ft 12 kts 122°
2026-05-03 22:28 -34.56294 -58.40603 26 ft 14 kts 126°
2026-05-03 22:28 -34.56363 -58.40516 26 ft 12 kts 139°
2026-05-03 22:28 -34.56406 -58.40470 26 ft 0 kts 137°
2026-05-03 22:29 -34.56407 -58.40470 26 ft 0 kts 137°
2026-05-03 22:29 -34.56407 -58.40469 26 ft 0 kts 137°
2026-05-03 22:30 -34.56421 -58.40454 26 ft 7 kts 137°
2026-05-03 22:30 -34.56462 -58.40408 26 ft 7 kts 137°
2026-05-03 22:30 -34.56502 -58.40376 26 ft 6 kts 166°
2026-05-03 22:30 -34.56540 -58.40387 27 ft 4 kts 210°
2026-05-03 22:31 -34.56559 -58.40427 28 ft 7 kts 288°
2026-05-03 22:31 -34.56556 -58.40432 28 ft 0 kts 298°
2026-05-03 22:31 -34.56536 -58.40477 28 ft 31 kts 301°
2026-05-03 22:31 -34.56248 -58.40985 32 ft 110 kts 304°
2026-05-03 22:32 -34.55697 -58.41981 88 ft 166 kts 306°
2026-05-03 22:32 -34.55039 -58.43123 766 ft 167 kts 308°
2026-05-03 22:32 -34.54256 -58.44227 1275 ft 180 kts 330°
2026-05-03 22:32 -34.53016 -58.44446 1789 ft 190 kts 17°
2026-05-03 22:33 -34.51902 -58.43507 2353 ft 205 kts 41°
2026-05-03 22:33 -34.50770 -58.42345 2877 ft 225 kts 35°
2026-05-03 22:33 -34.49426 -58.41221 3470 ft 244 kts 32°
2026-05-03 22:33 -34.47954 -58.40059 4229 ft 254 kts 31°
2026-05-03 22:34 -34.46487 -58.38896 5100 ft 258 kts 31°
2026-05-03 22:34 -34.44980 -58.37680 5984 ft 262 kts 31°
2026-05-03 22:34 -34.43478 -58.36442 6828 ft 266 kts 31°
2026-05-03 22:34 -34.41920 -58.35191 7644 ft 269 kts 24°
2026-05-03 22:35 -34.40143 -58.34622 8430 ft 266 kts 356°
2026-05-03 22:35 -34.38350 -58.35108 9256 ft 265 kts 333°
2026-05-03 22:35 -34.36900 -58.36421 10067 ft 267 kts 310°
2026-05-03 22:35 -34.35949 -58.38368 10802 ft 274 kts 297°
2026-05-03 22:36 -34.35118 -58.40505 11452 ft 282 kts 297°
2026-05-03 22:36 -34.34290 -58.42642 12222 ft 284 kts 297°
2026-05-03 22:36 -34.33458 -58.44796 13017 ft 285 kts 296°
2026-05-03 22:36 -34.32613 -58.46985 13796 ft 286 kts 296°
2026-05-03 22:37 -34.31773 -58.49160 14516 ft 288 kts 296°
2026-05-03 22:37 -34.30926 -58.51351 15202 ft 290 kts 296°
2026-05-03 22:37 -34.30061 -58.53590 15873 ft 293 kts 296°
2026-05-03 22:37 -34.29204 -58.55811 16524 ft 296 kts 296°
2026-05-03 22:38 -34.28325 -58.58083 17156 ft 298 kts 296°
2026-05-03 22:38 -34.27435 -58.60381 17773 ft 301 kts 296°
2026-05-03 22:38 -34.26548 -58.62669 18395 ft 304 kts 296°
2026-05-03 22:38 -34.25645 -58.64996 19015 ft 306 kts 295°
2026-05-03 22:39 -34.24740 -58.67326 19640 ft 307 kts 296°
2026-05-03 22:39 -34.23826 -58.69679 20225 ft 310 kts 295°
2026-05-03 22:39 -34.22904 -58.72054 20814 ft 312 kts 295°
2026-05-03 22:39 -34.21981 -58.74430 21397 ft 314 kts 295°
2026-05-03 22:40 -34.21043 -58.76842 21890 ft 319 kts 295°
2026-05-03 22:40 -34.20092 -58.79288 22335 ft 325 kts 295°
2026-05-03 22:40 -34.19132 -58.81753 22878 ft 327 kts 294°
2026-05-03 22:40 -34.18153 -58.84264 23424 ft 329 kts 294°
2026-05-03 22:41 -34.17184 -58.86753 23934 ft 331 kts 294°
2026-05-03 22:41 -34.16193 -58.89297 24432 ft 333 kts 294°
2026-05-03 22:41 -34.15193 -58.91857 24917 ft 335 kts 294°
2026-05-03 22:41 -34.14205 -58.94386 25385 ft 337 kts 294°
2026-05-03 22:42 -34.13195 -58.96972 25844 ft 339 kts 294°
2026-05-03 22:42 -34.12178 -58.99571 26286 ft 342 kts 294°
2026-05-03 22:42 -34.11166 -59.02159 26694 ft 344 kts 294°
2026-05-03 22:42 -34.10137 -59.04783 27113 ft 346 kts 294°
2026-05-03 22:43 -34.09101 -59.07422 27531 ft 348 kts 294°
2026-05-03 22:43 -34.08058 -59.10080 27952 ft 350 kts 294°
2026-05-03 22:43 -34.06940 -59.12696 28359 ft 352 kts 298°
2026-05-03 22:43 -34.05649 -59.15237 28742 ft 354 kts 301°
2026-05-03 22:44 -34.04202 -59.17675 29103 ft 358 kts 304°
2026-05-03 22:44 -34.02628 -59.20006 29467 ft 360 kts 306°
2026-05-03 22:44 -34.01009 -59.22352 29828 ft 361 kts 306°
2026-05-03 22:44 -33.99404 -59.24675 30163 ft 363 kts 306°
2026-05-03 22:45 -33.97771 -59.27036 30485 ft 365 kts 306°
2026-05-03 22:45 -33.96130 -59.29400 30801 ft 367 kts 306°
2026-05-03 22:45 -33.94497 -59.31752 31103 ft 369 kts 306°
2026-05-03 22:45 -33.92835 -59.34144 31385 ft 371 kts 306°
2026-05-03 22:46 -33.91161 -59.36548 31668 ft 373 kts 306°
2026-05-03 22:46 -33.89491 -59.38948 31938 ft 375 kts 306°
2026-05-03 22:46 -33.87814 -59.41355 32215 ft 376 kts 306°
2026-05-03 22:46 -33.86134 -59.43766 32468 ft 378 kts 306°
2026-05-03 22:47 -33.84414 -59.46233 32723 ft 380 kts 306°
2026-05-03 22:47 -33.82721 -59.48660 32970 ft 382 kts 306°
2026-05-03 22:47 -33.80989 -59.51139 33212 ft 383 kts 306°
2026-05-03 22:47 -33.79278 -59.53587 33448 ft 385 kts 306°
2026-05-03 22:48 -33.77537 -59.56078 33670 ft 386 kts 306°
2026-05-03 22:48 -33.75810 -59.58546 33905 ft 387 kts 306°
2026-05-03 22:48 -33.74085 -59.61010 34207 ft 387 kts 306°
2026-05-03 22:48 -33.72326 -59.63520 34504 ft 387 kts 306°
2026-05-03 22:49 -33.70595 -59.65987 34758 ft 388 kts 307°
2026-05-03 22:49 -33.68839 -59.68482 35011 ft 389 kts 307°
2026-05-03 22:49 -33.67088 -59.70963 35255 ft 389 kts 307°
2026-05-03 22:49 -33.65335 -59.73447 35483 ft 390 kts 307°
2026-05-03 22:50 -33.63571 -59.75944 35700 ft 391 kts 307°
2026-05-03 22:50 -33.61811 -59.78437 35901 ft 392 kts 307°
2026-05-03 22:50 -33.60046 -59.80936 36051 ft 393 kts 307°
2026-05-03 22:51 -33.56488 -59.85969 36047 ft 394 kts 307°
2026-05-03 22:51 -33.52948 -59.90971 36049 ft 393 kts 307°
2026-05-03 22:52 -33.49387 -59.95999 36049 ft 393 kts 307°
2026-05-03 22:52 -33.45842 -60.00994 36049 ft 394 kts 307°
2026-05-03 22:53 -33.42285 -60.05997 36050 ft 394 kts 307°
2026-05-03 22:53 -33.38717 -60.11013 36047 ft 395 kts 307°
2026-05-03 22:54 -33.35135 -60.16038 36050 ft 396 kts 307°
2026-05-03 22:54 -33.31535 -60.21085 36048 ft 396 kts 308°
2026-05-03 22:55 -33.27966 -60.26081 36044 ft 396 kts 308°
2026-05-03 22:55 -33.24377 -60.31094 36044 ft 395 kts 307°
2026-05-03 22:56 -33.20777 -60.36120 36042 ft 395 kts 308°
2026-05-03 22:56 -33.17208 -60.41096 36043 ft 396 kts 307°
2026-05-03 22:57 -33.13601 -60.46120 36042 ft 397 kts 308°
2026-05-03 22:57 -33.10002 -60.51123 36041 ft 396 kts 308°
2026-05-03 22:58 -33.06412 -60.56110 36038 ft 395 kts 308°
2026-05-03 22:58 -33.02816 -60.61097 36037 ft 396 kts 308°
2026-05-03 22:59 -32.99204 -60.66102 36038 ft 397 kts 308°
2026-05-03 22:59 -32.95583 -60.71111 36037 ft 397 kts 308°
2026-05-03 23:00 -32.92028 -60.76146 36034 ft 397 kts 306°
2026-05-03 23:00 -32.88850 -60.81530 36030 ft 396 kts 301°
2026-05-03 23:01 -32.86044 -60.87139 36023 ft 396 kts 299°
2026-05-03 23:01 -32.83238 -60.92801 36021 ft 396 kts 299°
2026-05-03 23:02 -32.80804 -60.97709 36018 ft 396 kts 299°
2026-05-03 23:02 -32.78503 -61.02352 36016 ft 396 kts 299°
2026-05-03 23:03 -32.75694 -61.08009 35934 ft 396 kts 298°
2026-05-03 23:03 -32.72871 -61.13654 35960 ft 395 kts 294°
2026-05-03 23:04 -32.70113 -61.19347 35876 ft 403 kts 293°
2026-05-03 23:04 -32.67198 -61.25149 35894 ft 407 kts 293°
2026-05-03 23:05 -32.64309 -61.30911 35901 ft 406 kts 294°
2026-05-03 23:05 -32.61406 -61.36700 35906 ft 405 kts 294°
2026-05-03 23:06 -32.58517 -61.42462 35909 ft 405 kts 294°
2026-05-03 23:06 -32.55648 -61.48186 35913 ft 404 kts 294°
2026-05-03 23:07 -32.52755 -61.53947 35917 ft 404 kts 294°
2026-05-03 23:07 -32.49881 -61.59655 35914 ft 404 kts 294°
2026-05-03 23:08 -32.46989 -61.65398 35913 ft 403 kts 295°
2026-05-03 23:08 -32.44107 -61.71110 35914 ft 403 kts 295°
2026-05-03 23:09 -32.41237 -61.76794 35914 ft 402 kts 295°
2026-05-03 23:09 -32.38345 -61.82514 35911 ft 402 kts 295°
2026-05-03 23:10 -32.35470 -61.88188 35907 ft 402 kts 295°
2026-05-03 23:10 -32.32579 -61.93880 35902 ft 401 kts 295°
2026-05-03 23:11 -32.29698 -61.99535 35899 ft 400 kts 295°
2026-05-03 23:11 -32.26807 -62.05209 35903 ft 401 kts 295°
2026-05-03 23:12 -32.23940 -62.10833 35908 ft 399 kts 295°
2026-05-03 23:12 -32.21053 -62.16491 35908 ft 400 kts 295°
2026-05-03 23:13 -32.18184 -62.22101 35909 ft 399 kts 295°
2026-05-03 23:13 -32.15303 -62.27729 35907 ft 398 kts 295°
2026-05-03 23:14 -32.12421 -62.33350 35904 ft 398 kts 295°
2026-05-03 23:14 -32.10990 -62.36140 35621 ft 397 kts 295°
2026-05-03 23:14 -32.09563 -62.38920 34731 ft 401 kts 295°
2026-05-03 23:14 -32.08109 -62.41755 33563 ft 409 kts 295°
2026-05-03 23:15 -32.06619 -62.44658 32600 ft 412 kts 295°
2026-05-03 23:15 -32.05139 -62.47531 31964 ft 408 kts 295°
2026-05-03 23:15 -32.03668 -62.50378 31455 ft 402 kts 295°
2026-05-03 23:15 -32.02238 -62.53145 31007 ft 395 kts 295°
2026-05-03 23:16 -32.00816 -62.55897 30586 ft 388 kts 295°
2026-05-03 23:16 -31.99419 -62.58600 30172 ft 381 kts 295°
2026-05-03 23:16 -31.98048 -62.61251 29772 ft 374 kts 295°
2026-05-03 23:16 -31.96703 -62.63851 29394 ft 368 kts 295°
2026-05-03 23:17 -31.95379 -62.66414 29005 ft 363 kts 295°
2026-05-03 23:17 -31.94060 -62.68964 28536 ft 360 kts 295°
2026-05-03 23:17 -31.92769 -62.71459 28070 ft 357 kts 295°
2026-05-03 23:17 -31.91485 -62.73943 27630 ft 354 kts 296°
2026-05-03 23:18 -31.90198 -62.76424 27184 ft 351 kts 296°
2026-05-03 23:18 -31.88931 -62.78868 26752 ft 348 kts 296°
2026-05-03 23:18 -31.87670 -62.81298 26306 ft 345 kts 296°
2026-05-03 23:18 -31.86424 -62.83697 25868 ft 342 kts 296°
2026-05-03 23:19 -31.85180 -62.86091 25413 ft 340 kts 296°
2026-05-03 23:19 -31.83950 -62.88456 24961 ft 338 kts 296°
2026-05-03 23:19 -31.82710 -62.90838 24501 ft 337 kts 296°
2026-05-03 23:19 -31.81483 -62.93193 24044 ft 335 kts 296°
2026-05-03 23:20 -31.80267 -62.95524 23601 ft 333 kts 296°
2026-05-03 23:20 -31.79050 -62.97859 23150 ft 332 kts 296°
2026-05-03 23:20 -31.77844 -63.00172 22686 ft 331 kts 297°
2026-05-03 23:20 -31.76807 -63.02572 22216 ft 333 kts 283°
2026-05-03 23:21 -31.76564 -63.05260 21747 ft 330 kts 263°
2026-05-03 23:21 -31.77064 -63.07897 21303 ft 329 kts 254°
2026-05-03 23:21 -31.77744 -63.10465 20849 ft 328 kts 252°
2026-05-03 23:21 -31.78444 -63.13017 20389 ft 327 kts 252°
2026-05-03 23:22 -31.79835 -63.18111 19684 ft 326 kts 252°
2026-05-03 23:22 -31.80517 -63.20639 19360 ft 326 kts 252°
2026-05-03 23:22 -31.81201 -63.23208 19030 ft 325 kts 252°
2026-05-03 23:23 -31.81871 -63.25737 18853 ft 325 kts 252°
2026-05-03 23:23 -31.82542 -63.28289 18694 ft 325 kts 252°
2026-05-03 23:23 -31.83217 -63.30848 18646 ft 326 kts 252°
2026-05-03 23:23 -31.83884 -63.33373 18652 ft 326 kts 252°
2026-05-03 23:24 -31.84559 -63.35944 18656 ft 327 kts 252°
2026-05-03 23:24 -31.85238 -63.38532 18645 ft 327 kts 252°
2026-05-03 23:24 -31.85902 -63.41072 18659 ft 327 kts 252°
2026-05-03 23:24 -31.86575 -63.43663 18663 ft 327 kts 252°
2026-05-03 23:25 -31.87232 -63.46207 18660 ft 327 kts 252°
2026-05-03 23:25 -31.87897 -63.48776 18657 ft 327 kts 252°
2026-05-03 23:25 -31.88565 -63.51356 18659 ft 327 kts 252°
2026-05-03 23:25 -31.89227 -63.53911 18646 ft 327 kts 253°
2026-05-03 23:26 -31.89627 -63.56551 18645 ft 328 kts 267°
2026-05-03 23:26 -31.89556 -63.59248 18645 ft 329 kts 271°
2026-05-03 23:26 -31.89389 -63.61937 18641 ft 329 kts 272°
2026-05-03 23:26 -31.89203 -63.64646 18498 ft 329 kts 272°
2026-05-03 23:27 -31.89014 -63.67335 18105 ft 327 kts 273°
2026-05-03 23:27 -31.88823 -63.69977 17661 ft 325 kts 273°
2026-05-03 23:27 -31.88632 -63.72639 17151 ft 325 kts 273°
2026-05-03 23:27 -31.88442 -63.75316 16674 ft 324 kts 273°
2026-05-03 23:28 -31.88259 -63.77923 16235 ft 323 kts 273°
2026-05-03 23:28 -31.88071 -63.80565 15784 ft 322 kts 273°
2026-05-03 23:28 -31.87887 -63.83183 15331 ft 321 kts 273°
2026-05-03 23:28 -31.87704 -63.85821 14865 ft 320 kts 273°
2026-05-03 23:29 -31.87528 -63.88426 14406 ft 320 kts 273°
2026-05-03 23:29 -31.87354 -63.91057 13957 ft 319 kts 273°
2026-05-03 23:29 -31.87055 -63.93618 13495 ft 320 kts 286°
2026-05-03 23:29 -31.85986 -63.95938 13004 ft 323 kts 309°
2026-05-03 23:30 -31.84232 -63.97539 12581 ft 325 kts 333°
2026-05-03 23:30 -31.82027 -63.98273 12167 ft 325 kts 349°
2026-05-03 23:30 -31.79793 -63.98587 11764 ft 323 kts 352°
2026-05-03 23:30 -31.77527 -63.98759 11338 ft 322 kts
2026-05-03 23:31 -31.75350 -63.98114 10890 ft 324 kts 26°
2026-05-03 23:31 -31.73578 -63.96527 10488 ft 322 kts 47°
2026-05-03 23:31 -31.72161 -63.94522 10312 ft 312 kts 52°
2026-05-03 23:31 -31.70854 -63.92525 10084 ft 305 kts 53°
2026-05-03 23:32 -31.69557 -63.90522 9724 ft 303 kts 53°
2026-05-03 23:32 -31.68284 -63.88551 9360 ft 301 kts 53°
2026-05-03 23:32 -31.67019 -63.86595 9014 ft 298 kts 53°
2026-05-03 23:32 -31.65768 -63.84671 8683 ft 295 kts 53°
2026-05-03 23:33 -31.64647 -63.82669 8319 ft 293 kts 68°
2026-05-03 23:33 -31.64243 -63.80351 7983 ft 287 kts 88°
2026-05-03 23:33 -31.64229 -63.78009 7653 ft 285 kts 92°
2026-05-03 23:33 -31.64282 -63.75705 7305 ft 283 kts 93°
2026-05-03 23:34 -31.64349 -63.73380 7003 ft 279 kts 93°
2026-05-03 23:34 -31.64421 -63.71103 6941 ft 278 kts 93°
2026-05-03 23:34 -31.64495 -63.68825 6949 ft 278 kts 93°
2026-05-03 23:34 -31.64570 -63.66536 6949 ft 278 kts 93°
2026-05-03 23:35 -31.64630 -63.64269 6948 ft 278 kts 90°
2026-05-03 23:35 -31.64229 -63.62070 6851 ft 280 kts 65°
2026-05-03 23:35 -31.63018 -63.60292 6737 ft 282 kts 40°
2026-05-03 23:35 -31.61401 -63.58942 6621 ft 282 kts 34°
2026-05-03 23:36 -31.59741 -63.57717 6494 ft 281 kts 33°
2026-05-03 23:36 -31.58067 -63.56509 6374 ft 280 kts 31°
2026-05-03 23:36 -31.56225 -63.55738 6235 ft 281 kts
2026-05-03 23:36 -31.54278 -63.56045 6110 ft 282 kts 338°
2026-05-03 23:37 -31.52674 -63.57335 5992 ft 282 kts 310°
2026-05-03 23:37 -31.51772 -63.59351 5957 ft 281 kts 284°
2026-05-03 23:37 -31.51362 -63.61608 5955 ft 282 kts 281°
2026-05-03 23:37 -31.50973 -63.63882 5953 ft 282 kts 281°
2026-05-03 23:38 -31.50580 -63.66139 5954 ft 282 kts 282°
2026-05-03 23:38 -31.50180 -63.68401 5952 ft 281 kts 282°
2026-05-03 23:38 -31.49780 -63.70628 5952 ft 282 kts 282°
2026-05-03 23:38 -31.49367 -63.72909 5897 ft 282 kts 282°
2026-05-03 23:39 -31.48960 -63.75149 5777 ft 282 kts 282°
2026-05-03 23:39 -31.48546 -63.77424 5652 ft 281 kts 282°
2026-05-03 23:39 -31.48135 -63.79675 5533 ft 281 kts 282°
2026-05-03 23:39 -31.47725 -63.81917 5366 ft 278 kts 282°
2026-05-03 23:40 -31.47325 -63.84098 5156 ft 271 kts 282°
2026-05-03 23:40 -31.46935 -63.86232 5002 ft 262 kts 282°
2026-05-03 23:40 -31.46560 -63.88276 4958 ft 249 kts 282°
2026-05-03 23:40 -31.46193 -63.90266 4955 ft 247 kts 282°
2026-05-03 23:41 -31.45832 -63.92229 4953 ft 247 kts 283°
2026-05-03 23:41 -31.45469 -63.94202 4956 ft 247 kts 283°
2026-05-03 23:41 -31.45101 -63.96193 4959 ft 248 kts 283°
2026-05-03 23:41 -31.44737 -63.98161 4955 ft 247 kts 283°
2026-05-03 23:42 -31.44369 -64.00150 4953 ft 248 kts 283°
2026-05-03 23:42 -31.44000 -64.02145 4958 ft 248 kts 283°
2026-05-03 23:42 -31.43647 -64.04119 4959 ft 249 kts 280°
2026-05-03 23:42 -31.43475 -64.06139 4962 ft 249 kts 272°
2026-05-03 23:43 -31.43458 -64.08153 4865 ft 243 kts 270°
2026-05-03 23:43 -31.43468 -64.10150 4355 ft 246 kts 270°
2026-05-03 23:43 -31.43479 -64.12168 4201 ft 248 kts 270°
2026-05-03 23:43 -31.43484 -64.14147 4075 ft 240 kts 270°
2026-05-03 23:44 -31.43470 -64.16070 3903 ft 227 kts 277°
2026-05-03 23:44 -31.42934 -64.17712 3602 ft 213 kts 319°
2026-05-03 23:44 -31.41697 -64.18537 3380 ft 204 kts 344°
2026-05-03 23:44 -31.40355 -64.19104 3117 ft 205 kts 342°
2026-05-03 23:45 -31.39034 -64.19769 2855 ft 205 kts 338°
2026-05-03 23:45 -31.37756 -64.20520 2618 ft 203 kts 337°
2026-05-03 23:45 -31.36427 -64.20951 2377 ft 194 kts 358°
2026-05-03 23:45 -31.34999 -64.20972 2547 ft 218 kts
2026-05-03 23:46 -31.33440 -64.20927 3393 ft 232 kts
2026-05-03 23:46 -31.31845 -64.20847 4178 ft 226 kts
2026-05-03 23:46 -31.30273 -64.20743 4757 ft 226 kts
2026-05-03 23:46 -31.28701 -64.20626 4965 ft 226 kts
2026-05-03 23:47 -31.27105 -64.20503 4969 ft 226 kts
2026-05-03 23:47 -31.25534 -64.20384 4973 ft 226 kts
2026-05-03 23:47 -31.23944 -64.20267 4975 ft 226 kts
2026-05-03 23:47 -31.22351 -64.20155 4977 ft 226 kts
2026-05-03 23:48 -31.20775 -64.20154 4979 ft 231 kts 350°
2026-05-03 23:48 -31.19314 -64.21042 5349 ft 244 kts 316°
2026-05-03 23:48 -31.18442 -64.22710 5799 ft 241 kts 285°
2026-05-03 23:48 -31.18398 -64.24645 5979 ft 245 kts 255°
2026-05-03 23:49 -31.19241 -64.26466 5995 ft 267 kts 225°
2026-05-03 23:49 -31.20817 -64.27673 5988 ft 275 kts 196°
2026-05-03 23:49 -31.22718 -64.27902 5982 ft 272 kts 168°
2026-05-03 23:49 -31.24442 -64.27102 5981 ft 268 kts 142°
2026-05-03 23:50 -31.25876 -64.25677 5984 ft 267 kts 135°
2026-05-03 23:50 -31.26763 -64.24663 5982 ft 266 kts 134°
2026-05-03 23:50 -31.28496 -64.22613 5977 ft 266 kts 133°
2026-05-03 23:50 -31.29799 -64.21064 5975 ft 265 kts 133°
2026-05-03 23:51 -31.31097 -64.19514 5974 ft 266 kts 133°
2026-05-03 23:51 -31.32399 -64.17954 5975 ft 267 kts 133°
2026-05-03 23:51 -31.33711 -64.16385 5977 ft 266 kts 133°
2026-05-03 23:51 -31.35010 -64.14826 5976 ft 267 kts 133°
2026-05-03 23:52 -31.36306 -64.13267 5979 ft 267 kts 133°
2026-05-03 23:52 -31.37617 -64.11697 5979 ft 267 kts 133°
2026-05-03 23:52 -31.38937 -64.10176 5972 ft 258 kts 134°
2026-05-03 23:52 -31.40200 -64.08727 5972 ft 245 kts 134°
2026-05-03 23:53 -31.41458 -64.07332 5974 ft 250 kts 142°
2026-05-03 23:53 -31.43036 -64.06622 5955 ft 242 kts 179°
2026-05-03 23:53 -31.44624 -64.07187 5888 ft 242 kts 216°
2026-05-03 23:53 -31.45616 -64.08772 5529 ft 246 kts 255°
2026-05-03 23:54 -31.45553 -64.10751 5155 ft 247 kts 294°
2026-05-03 23:54 -31.44582 -64.12347 4924 ft 238 kts 316°
2026-05-03 23:54 -31.43559 -64.13821 4694 ft 228 kts 293°
2026-05-03 23:54 -31.43272 -64.15603 4476 ft 218 kts 272°
2026-05-03 23:55 -31.43091 -64.17329 4304 ft 207 kts 293°
2026-05-03 23:55 -31.42233 -64.18579 4120 ft 188 kts 333°
2026-05-03 23:55 -31.41056 -64.19081 3911 ft 173 kts 348°
2026-05-03 23:55 -31.39935 -64.19470 3711 ft 164 kts 345°
2026-05-03 23:56 -31.38875 -64.19946 3253 ft 168 kts 341°
2026-05-03 23:56 -31.37791 -64.20542 2721 ft 172 kts 339°
2026-05-03 23:56 -31.36679 -64.20870 2397 ft 158 kts
2026-05-03 23:56 -31.35603 -64.20859 2186 ft 150 kts
2026-05-03 23:57 -31.34558 -64.20835 1972 ft 150 kts
2026-05-03 23:57 -31.33497 -64.20815 1773 ft 151 kts
2026-05-03 23:57 -31.32446 -64.20801 1599 ft 151 kts
2026-05-03 23:57 -31.31448 -64.20826 1561 ft 123 kts
2026-05-03 23:58 -31.30758 -64.20835 1579 ft 72 kts
2026-05-03 23:58 -31.30421 -64.20842 1588 ft 27 kts 356°
2026-05-03 23:58 -31.30269 -64.20827 1593 ft 12 kts 352°
2026-05-03 23:58 -31.30297 -64.20847 1593 ft 7 kts 175°
2026-05-03 23:59 -31.30372 -64.20844 1590 ft 14 kts 180°
2026-05-03 23:59 -31.30480 -64.20843 1586 ft 16 kts 178°
2026-05-03 23:59 -31.30603 -64.20841 1584 ft 18 kts 179°
2026-05-03 23:59 -31.30746 -64.20837 1579 ft 22 kts 179°
2026-05-04 00:00 -31.30910 -64.20833 1574 ft 24 kts 176°
2026-05-04 00:00 -31.31080 -64.20830 1570 ft 24 kts 177°
2026-05-04 00:00 -31.31256 -64.20830 1565 ft 25 kts 179°
2026-05-04 00:00 -31.31406 -64.20828 1562 ft 11 kts 180°
2026-05-04 00:01 -31.31463 -64.20870 1562 ft 9 kts 255°
2026-05-04 00:01 -31.31464 -64.20941 1565 ft 6 kts 269°
2026-05-04 00:01 -31.31464 -64.20969 1566 ft 0 kts 270°
2026-05-04 00:01 -31.31464 -64.20970 1566 ft 1 kts 270°
2026-05-04 00:02 -31.31475 -64.21033 1568 ft 13 kts 233°
2026-05-04 00:02 -31.31535 -64.21080 1567 ft 8 kts 230°
2026-05-04 00:02 -31.31543 -64.21149 1568 ft 7 kts 269°
2026-05-04 00:02 -31.31543 -64.21180 1569 ft 0 kts 267°